Location: La Trinit�
(48.1620°N, 3.4512°W)
Time: 03:58:39
(UTC+00:00)

Cosmos 2221 - Pass Details

Date: 08 May 2021
Orbit: 593 x 615 km, 82.5° (Epoch: 13 June)

Event Time Altitude Azimuth Distance (km) Brightness Sun altitude
Rises 20:04:34 0° 191° (S) 2,835 5.7 -4.7°
Reaches altitude 10° 20:06:46 10° 193° (SSW) 1,941 4.9 -5.1°
Maximum altitude 20:11:03 78° 279° (W) 624 2.7 -5.6°
Drops below altitude 10° 20:15:25 10° 7° (N) 1,971 5.5 -6.2°
Sets 20:17:40 0° 9° (N) 2,884 6.4 -6.6°
